Weather History for KAYS - January, 2014

Change the Weather History Date:

Tuesday, January 7, 2014

  Actual Average (KAMG) Record (KAMG)
Temperature  
Mean Temperature 27 °F 50 °F  
Max Temperature 33 °F 61 °F 80 °F (2007)
Min Temperature 21 °F 39 °F 18 °F (2014)
Degree Days  
Heating Degree Days 38 15  
Month to date heating degree days 105  
Since 1 July heating degree days 745  
Cooling Degree Days 0 0  
Month to date cooling degree days 0  
Year to date cooling degree days 0  
Moisture  
Dew Point 11 °F    
Average Humidity 49    
Maximum Humidity 64    
Minimum Humidity 38    
Precipitation  
Precipitation 0.00 in 0.13 in 1.39 in (1990)
Month to date precipitation 0.89  
Year to date precipitation 0.89  
Snow  
Snow 0.00 in 0.00 in 0.00 in ()
Month to date snowfall 0.0  
Since 1 July snowfall 0.1  
Snow Depth -    
Sea Level Pressure  
Sea Level Pressure 30.49 in    
Wind  
Wind Speed 10 mph (NNW)    
Max Wind Speed 18 mph    
Max Gust Speed 22 mph    
Visibility 10 miles    
Events      
T = Trace of Precipitation, MM = Missing Value Source: NWS Daily Summary

Daily Weather History Graph

Daily Weather History Graph

Search for Another Location

Airport or City:

Trip Planner

Search our weather history database for the weather conditions in past years. The results will help you decide how hot, cold, wet, or windy it might be!

Date:

Astronomy

Jan. 07, 2014 Rise Set
Actual Time 7:29 AM EST 5:42 PM EST
Civil Twilight 7:02 AM EST 6:09 PM EST
Nautical Twilight 6:32 AM EST 6:39 PM EST
Astronomical Twilight 6:03 AM EST 7:08 PM EST
Moon 11:45 AM EST (1/7) No Moon Set
Length of Visible Light 11h 06m
Length of Day
10h 13m
Waxing Crescent, 45% of the Moon is Illuminated
Jan 7
Waxing Crescent
Jan 7
First Quarter
Jan 15
Full
Jan 24
Last Quarter
Jan 30
New

Hourly Weather History & Observations

Time (EST) Temp. Windchill Dew Point Humidity Pressure Visibility Wind Dir Wind Speed Gust Speed Precip Events Conditions
12:15 AM 30.2 °F 20.2 °F 10.4 °F 44% 30.40 in 10.0 mi NW 12.7 mph - N/A   Unknown
12:35 AM 28.4 °F 18.5 °F 8.6 °F 43% 30.40 in 10.0 mi NW 11.5 mph 19.6 mph N/A   Unknown
12:55 AM 28.4 °F 16.6 °F 8.6 °F 43% 30.40 in 10.0 mi NW 16.1 mph - N/A   Unknown
1:15 AM 28.4 °F 17.5 °F 8.6 °F 43% 30.41 in 10.0 mi NW 13.8 mph 19.6 mph N/A   Unknown
1:35 AM 26.6 °F 14.7 °F 8.6 °F 47% 30.42 in 10.0 mi NNW 15.0 mph 18.4 mph N/A   Unknown
1:55 AM 26.6 °F 13.8 °F 8.6 °F 47% 30.42 in 10.0 mi NNW 17.3 mph 20.7 mph N/A   Unknown
2:15 AM 26.6 °F 16.8 °F 8.6 °F 47% 30.43 in 10.0 mi NNW 10.4 mph - N/A   Unknown
2:35 AM 24.8 °F 14.0 °F 8.6 °F 50% 30.43 in 10.0 mi NW 11.5 mph 20.7 mph N/A   Unknown
2:55 AM 24.8 °F 14.0 °F 8.6 °F 50% 30.44 in 10.0 mi NW 11.5 mph 17.3 mph N/A   Unknown
3:15 AM 24.8 °F 13.4 °F 8.6 °F 50% 30.45 in 10.0 mi NW 12.7 mph 21.9 mph N/A   Unknown
3:35 AM 24.8 °F 11.5 °F 8.6 °F 50% 30.45 in 10.0 mi NW 17.3 mph - N/A   Unknown
3:55 AM 24.8 °F 13.4 °F 6.8 °F 46% 30.46 in 10.0 mi NW 12.7 mph 17.3 mph N/A   Unknown
4:15 AM 23.0 °F 12.4 °F 6.8 °F 50% 30.46 in 10.0 mi NNW 10.4 mph - N/A   Unknown
4:35 AM 23.0 °F 10.6 °F 6.8 °F 50% 30.45 in 10.0 mi NNW 13.8 mph 18.4 mph N/A   Unknown
4:55 AM 23.0 °F 8.7 °F 6.8 °F 50% 30.46 in 10.0 mi NW 18.4 mph - N/A   Unknown
5:15 AM 21.2 °F 9.5 °F 6.8 °F 54% 30.46 in 10.0 mi NNW 11.5 mph 16.1 mph N/A   Unknown
5:35 AM 21.2 °F 8.9 °F 6.8 °F 54% 30.46 in 10.0 mi NNW 12.7 mph 17.3 mph N/A   Unknown
5:55 AM 21.2 °F 11.7 °F 6.8 °F 54% 30.47 in 10.0 mi NW 8.1 mph - N/A   Unknown
6:15 AM 21.2 °F 8.9 °F 6.8 °F 54% 30.47 in 10.0 mi NW 12.7 mph 16.1 mph N/A   Unknown
6:35 AM 21.2 °F 10.9 °F 6.8 °F 54% 30.47 in 10.0 mi NNW 9.2 mph - N/A   Unknown
6:55 AM 21.2 °F 10.9 °F 6.8 °F 54% 30.48 in 10.0 mi NNW 9.2 mph - N/A   Unknown
7:15 AM 21.2 °F 11.7 °F 6.8 °F 54% 30.49 in 10.0 mi NNW 8.1 mph - N/A   Unknown
7:35 AM 21.2 °F 11.7 °F 6.8 °F 54% 30.50 in 10.0 mi NW 8.1 mph - N/A   Unknown
7:55 AM 21.2 °F 11.7 °F 8.6 °F 58% 30.50 in 10.0 mi NNW 8.1 mph - N/A   Unknown
8:15 AM 21.2 °F 11.7 °F 8.6 °F 58% 30.51 in 10.0 mi NNW 8.1 mph - N/A   Unknown
8:55 AM 23.0 °F 12.4 °F 8.6 °F 54% 30.54 in 10.0 mi NW 10.4 mph - N/A   Unknown
9:35 AM 24.8 °F 15.3 °F 8.6 °F 50% 30.56 in 10.0 mi NW 9.2 mph - N/A   Unknown
9:55 AM 24.8 °F 16.1 °F 8.6 °F 50% 30.56 in 10.0 mi NW 8.1 mph - N/A   Unknown
10:15 AM 26.6 °F 18.2 °F 8.6 °F 47% 30.57 in 10.0 mi NNW 8.1 mph - N/A   Unknown
10:35 AM 26.6 °F 19.1 °F 6.8 °F 43% 30.57 in 10.0 mi NNW 6.9 mph - N/A   Unknown
10:55 AM 26.6 °F 16.2 °F 8.6 °F 47% 30.57 in 10.0 mi NNW 11.5 mph 17.3 mph N/A   Unknown
11:15 AM 26.6 °F 18.2 °F 8.6 °F 47% 30.56 in 10.0 mi NNW 8.1 mph - N/A   Unknown
11:35 AM 28.4 °F 22.2 °F 8.6 °F 43% 30.55 in 10.0 mi NW 5.8 mph - N/A   Unknown
11:55 AM 28.4 °F 23.3 °F 8.6 °F 43% 30.53 in 10.0 mi West 4.6 mph - N/A   Unknown
12:15 PM 28.4 °F - 8.6 °F 43% 30.52 in 10.0 mi Calm Calm - N/A   Unknown
12:35 PM 28.4 °F 24.6 °F 8.6 °F 43% 30.51 in 10.0 mi NW 3.5 mph - N/A   Unknown
12:55 PM 30.2 °F 22.6 °F 10.4 °F 44% 30.49 in 10.0 mi NNW 8.1 mph - N/A   Unknown
1:15 PM 30.2 °F 26.7 °F 10.4 °F 44% 30.47 in 10.0 mi NNW 3.5 mph - N/A   Unknown
1:35 PM 32.0 °F 25.6 °F 10.4 °F 41% 30.46 in 10.0 mi NW 6.9 mph - N/A   Unknown
1:55 PM 33.8 °F 26.4 °F 10.4 °F 38% 30.46 in 10.0 mi NW 9.2 mph - N/A   Unknown
2:15 PM 33.8 °F 27.7 °F 10.4 °F 38% 30.47 in 10.0 mi NNW 6.9 mph - N/A   Unknown
2:35 PM 33.8 °F 30.8 °F 10.4 °F 38% 30.47 in 10.0 mi NW 3.5 mph - N/A   Unknown
2:55 PM 33.8 °F 26.4 °F 10.4 °F 38% 30.46 in 10.0 mi North 9.2 mph - N/A   Unknown
3:15 PM 33.8 °F 27.0 °F 10.4 °F 38% 30.47 in 10.0 mi North 8.1 mph - N/A   Unknown
3:35 PM 33.8 °F 26.4 °F 10.4 °F 38% 30.47 in 10.0 mi North 9.2 mph - N/A   Unknown
3:55 PM 33.8 °F 28.6 °F 12.2 °F 41% 30.47 in 10.0 mi North 5.8 mph - N/A   Unknown
4:15 PM 33.8 °F 27.0 °F 12.2 °F 41% 30.48 in 10.0 mi NNW 8.1 mph - N/A   Unknown
4:35 PM 33.8 °F 27.0 °F 12.2 °F 41% 30.48 in 10.0 mi NNW 8.1 mph - N/A   Unknown
4:55 PM 33.8 °F 27.0 °F 10.4 °F 38% 30.48 in 10.0 mi North 8.1 mph - N/A   Unknown
5:15 PM 32.0 °F 24.8 °F 12.2 °F 44% 30.48 in 10.0 mi North 8.1 mph - N/A   Unknown
5:35 PM 32.0 °F 24.8 °F 12.2 °F 44% 30.48 in 10.0 mi North 8.1 mph - N/A   Unknown
5:55 PM 30.2 °F 23.4 °F 12.2 °F 47% 30.49 in 10.0 mi North 6.9 mph - N/A   Unknown
6:15 PM 30.2 °F 22.6 °F 12.2 °F 47% 30.50 in 10.0 mi North 8.1 mph - N/A   Unknown
6:35 PM 30.2 °F 23.4 °F 12.2 °F 47% 30.50 in 10.0 mi North 6.9 mph - N/A   Unknown
6:55 PM 30.2 °F 24.3 °F 12.2 °F 47% 30.51 in 10.0 mi North 5.8 mph - N/A   Unknown
7:15 PM 30.2 °F 23.4 °F 12.2 °F 47% 30.51 in 10.0 mi NNW 6.9 mph - N/A   Unknown
7:35 PM 30.2 °F 24.3 °F 14.0 °F 51% 30.52 in 10.0 mi North 5.8 mph - N/A   Unknown
7:55 PM 30.2 °F 25.4 °F 15.8 °F 55% 30.52 in 10.0 mi North 4.6 mph - N/A   Unknown
8:15 PM 30.2 °F 23.4 °F 15.8 °F 55% 30.52 in 10.0 mi North 6.9 mph - N/A   Unknown
8:35 PM 30.2 °F 26.7 °F 15.8 °F 55% 30.53 in 10.0 mi North 3.5 mph - N/A   Unknown
8:55 PM 28.4 °F 23.3 °F 15.8 °F 59% 30.53 in 10.0 mi North 4.6 mph - N/A   Unknown
9:15 PM 28.4 °F 24.6 °F 15.8 °F 59% 30.54 in 10.0 mi NNW 3.5 mph - N/A   Unknown
9:35 PM 28.4 °F - 15.8 °F 59% 30.55 in 10.0 mi Calm Calm - N/A   Unknown
9:55 PM 28.4 °F - 17.6 °F 64% 30.55 in 10.0 mi Calm Calm - N/A   Unknown
10:15 PM 28.4 °F 24.6 °F 15.8 °F 59% 30.55 in 10.0 mi North 3.5 mph - N/A   Unknown
10:35 PM 28.4 °F 24.6 °F 15.8 °F 59% 30.55 in 10.0 mi North 3.5 mph - N/A   Unknown
10:55 PM 28.4 °F - 15.8 °F 59% 30.55 in 10.0 mi Calm Calm - N/A   Unknown
11:15 PM 28.4 °F - 17.6 °F 64% 30.54 in 10.0 mi Calm Calm - N/A   Unknown
11:35 PM 28.4 °F 24.6 °F 17.6 °F 64% 30.53 in 10.0 mi NNE 3.5 mph - N/A   Unknown
11:55 PM 28.4 °F 24.6 °F 17.6 °F 64% 30.52 in 10.0 mi NNE 3.5 mph - N/A   Unknown